Date String (YYYY-MM-DD hh:mm:ss) UTC,Instrument flags,Ambient pressure (hPa),Sample flow (lpm),Bypass flow (lpm),Sample temperature (°C),Ambient temperature (°C),ASC tube jacket temperature (°C),LED temperature (°C),Box temperature (°C),Sample RH (%),Span deviation,Mass concentration (μg/m³),Mass concentration (μg/m³),Mass concentration (μg/m³)
DateTimeUTC,F1_M11,P_M11,Q1_M11,Q2_M11,T1_M11,T2_M11,T3_M11,T4_M11,T5_M11,U1_M11,ZSPAN_M11,X0_M11,X2_M11,X1_M11
2022-04-10 12:00:00,,0815.1,4.99,0.00,22.5,21.5,00.0,31.7,24.2,22.6,0000.0,0010.26,0004.20,0002.61
2022-04-10 12:01:00,,0815.1,5.00,0.00,22.5,21.5,00.0,31.7,24.2,22.6,0000.0,0010.59,0004.31,0002.66
2022-04-10 12:02:00,,0815.1,5.00,0.00,22.5,21.5,00.0,31.7,24.2,22.6,0000.0,0010.55,0004.30,0002.70
2022-04-10 12:03:00,,0815.1,5.00,0.00,22.5,21.5,00.0,31.6,24.2,22.5,0000.0,0010.29,0004.37,0002.72
2022-04-10 12:04:00,,0815.3,5.00,0.00,22.5,21.5,00.0,31.6,24.2,22.5,0000.0,0010.41,0004.40,0002.74
2022-04-10 12:05:00,,0815.2,5.00,0.00,22.5,21.4,00.0,31.6,24.2,22.5,0000.0,0010.59,0004.45,0002.75
2022-04-10 12:06:00,,0815.1,5.00,0.00,22.5,21.6,00.0,31.6,24.3,22.4,0000.0,0010.43,0004.52,0002.77
2022-04-10 12:07:00,,0815.1,5.00,0.00,22.5,21.7,00.0,31.6,24.3,22.3,0000.0,0010.53,0004.60,0002.81
2022-04-10 12:08:00,,0815.1,5.00,0.00,22.6,21.8,00.0,31.6,24.3,22.2,0000.0,0010.49,0004.60,0002.85
2022-04-10 12:09:00,,0815.1,5.00,0.00,22.6,21.8,00.0,31.6,24.4,22.2,0000.0,0010.36,0004.57,0002.89
2022-04-10 12:10:00,,0815.2,5.00,0.00,22.6,21.9,00.0,31.6,24.4,22.0,0000.0,0010.38,0004.63,0002.91
2022-04-10 12:11:00,,0815.2,5.00,0.00,22.6,21.7,00.0,31.6,24.4,21.9,0000.0,0010.36,0004.61,0002.90
2022-04-10 12:12:00,,0815.1,5.00,0.00,22.6,21.6,00.0,31.6,24.3,21.9,0000.0,0010.04,0004.54,0002.89
2022-04-10 12:13:00,,0815.1,5.00,0.00,22.6,21.5,00.0,31.6,24.3,21.9,0000.0,0010.48,0004.56,0002.87
2022-04-10 12:14:00,,0815.2,4.99,0.00,22.6,21.6,00.0,31.6,24.3,21.9,0000.0,0010.11,0004.47,0002.87
2022-04-10 12:15:00,,0815.2,5.00,0.00,22.6,21.7,00.0,31.6,24.3,21.8,0000.0,0010.13,0004.49,0002.86
2022-04-10 12:16:00,,0815.1,5.00,0.00,22.6,21.7,00.0,31.6,24.3,21.8,0000.0,0009.89,0004.46,0002.87
2022-04-10 12:17:00,,0815.2,5.00,0.00,22.6,21.8,00.0,31.6,24.4,21.7,0000.0,0009.89,0004.43,0002.86
2022-04-10 12:18:00,,0815.3,5.01,0.00,22.6,21.8,00.0,31.6,24.4,21.7,0000.0,0009.90,0004.42,0002.84
2022-04-10 12:19:00,,0815.1,4.99,0.00,22.6,21.9,00.0,31.6,24.5,21.6,0000.0,0009.91,0004.44,0002.82
2022-04-10 12:20:00,,0815.1,5.00,0.00,22.6,21.9,00.0,31.6,24.4,21.6,0000.0,0010.08,0004.50,0002.80
2022-04-10 12:21:00,,0815.1,5.01,0.00,22.6,21.9,00.0,31.6,24.4,21.6,0000.0,0010.03,0004.50,0002.81
2022-04-10 12:22:00,,0815.2,5.01,0.00,22.6,22.0,00.0,31.6,24.4,21.5,0000.0,0010.14,0004.51,0002.82
2022-04-10 12:23:00,,0815.1,5.00,0.00,22.6,22.0,00.0,31.7,24.4,21.5,0000.0,0010.30,0004.55,0002.83
2022-04-10 12:24:00,,0815.0,5.00,0.00,22.6,22.0,00.0,31.7,24.4,21.5,0000.0,0010.08,0004.61,0002.85
2022-04-10 12:25:00,,0815.0,5.00,0.00,22.6,21.9,00.0,31.7,24.4,21.5,0000.0,0010.09,0004.67,0002.87
2022-04-10 12:26:00,,0815.0,5.00,0.00,22.6,21.9,00.0,31.7,24.4,21.7,0000.0,0009.98,0004.63,0002.90
2022-04-10 12:27:00,,0815.1,5.00,0.00,22.6,21.8,00.0,31.7,24.4,23.2,0000.0,0009.84,0004.57,0002.94
2022-04-10 12:28:00,,0815.2,5.00,0.00,22.6,21.8,00.0,31.7,24.3,23.2,0000.0,0009.75,0004.55,0002.97
2022-04-10 12:29:00,,0815.0,5.00,0.00,22.6,21.7,00.0,31.6,24.3,22.0,0000.0,0009.61,0004.50,0003.00
2022-04-10 12:30:00,,0815.0,4.99,0.00,22.6,21.7,00.0,31.6,24.4,21.5,0000.0,0009.66,0004.43,0003.00
2022-04-10 12:31:00,,0815.0,5.00,0.00,22.6,21.8,00.0,31.6,24.4,21.2,0000.0,0009.65,0004.42,0003.00
2022-04-10 12:32:00,,0815.1,5.01,0.00,22.6,21.9,00.0,31.6,24.4,21.1,0000.0,0009.69,0004.40,0003.00
2022-04-10 12:33:00,,0815.1,4.99,0.00,22.6,21.9,00.0,31.6,24.4,21.1,0000.0,0009.51,0004.36,0002.99
2022-04-10 12:34:00,,0815.1,5.01,0.00,22.7,22.0,00.0,31.7,24.5,21.0,0000.0,0009.36,0004.34,0003.02
2022-04-10 12:35:00,,0815.1,5.00,0.00,22.7,22.0,00.0,31.7,24.5,21.0,0000.0,0009.24,0004.28,0003.01
2022-04-10 12:36:00,,0815.1,5.00,0.00,22.7,22.0,00.0,31.7,24.5,21.0,0000.0,0009.08,0004.21,0003.00
2022-04-10 12:37:00,,0815.2,5.00,0.00,22.7,22.0,00.0,31.7,24.6,21.0,0000.0,0009.39,0004.20,0003.01
2022-04-10 12:38:00,,0815.1,5.00,0.00,22.7,22.1,00.0,31.7,24.6,20.8,0000.0,0009.58,0004.25,0003.00
2022-04-10 12:39:00,,0815.1,5.00,0.00,22.8,22.1,00.0,31.7,24.6,20.5,0000.0,0009.75,0004.31,0003.01
2022-04-10 12:40:00,,0815.1,5.00,0.00,22.8,22.1,00.0,31.7,24.6,20.5,0000.0,0009.87,0004.33,0003.02
2022-04-10 12:41:00,,0815.3,5.00,0.00,22.8,22.1,00.0,31.7,24.6,20.7,0000.0,0009.62,0004.34,0003.03
2022-04-10 12:42:00,,0815.2,4.99,0.00,22.8,22.2,00.0,31.7,24.6,20.9,0000.0,0009.50,0004.34,0003.06
2022-04-10 12:43:00,,0815.1,5.00,0.00,22.8,22.2,00.0,31.7,24.6,20.9,0000.0,0009.59,0004.40,0003.07
2022-04-10 12:44:00,,0815.4,4.99,0.00,22.8,22.2,00.0,31.7,24.7,20.9,0000.0,0009.73,0004.44,0003.08
2022-04-10 12:45:00,,0815.1,5.00,0.00,22.8,22.2,00.0,31.8,24.8,20.9,0000.0,0009.85,0004.47,0003.08
2022-04-10 12:46:00,,0815.2,5.00,0.00,22.9,22.3,00.0,31.8,24.8,20.9,0000.0,0009.79,0004.47,0003.09
2022-04-10 12:47:00,,0815.2,5.01,0.00,22.9,22.3,00.0,31.8,24.9,20.8,0000.0,0009.93,0004.51,0003.10
2022-04-10 12:48:00,,0815.3,5.01,0.00,22.9,22.4,00.0,31.8,24.9,20.8,0000.0,0009.75,0004.55,0003.08
2022-04-10 12:49:00,,0815.4,4.99,0.00,23.0,22.4,00.0,31.8,24.9,20.7,0000.0,0009.81,0004.56,0003.06
2022-04-10 12:50:00,,0815.2,5.01,0.00,23.0,22.5,00.0,31.8,24.9,20.7,0000.0,0009.70,0004.52,0003.06
2022-04-10 12:51:00,,0815.3,5.00,0.00,23.0,22.5,00.0,31.8,24.9,20.6,0000.0,0009.61,0004.54,0003.07
2022-04-10 12:52:00,,0815.4,5.00,0.00,23.0,22.5,00.0,31.9,24.9,20.4,0000.0,0009.83,0004.61,0003.07
2022-04-10 12:53:00,,0815.2,5.00,0.00,23.0,22.5,00.0,31.9,24.9,20.3,0000.0,0010.33,0004.63,0003.06
2022-04-10 12:54:00,,0815.2,5.00,0.00,23.1,22.5,00.0,31.9,25.0,20.6,0000.0,0010.73,0004.59,0003.04
2022-04-10 12:55:00,,0815.3,5.00,0.00,23.1,22.6,00.0,31.9,25.0,20.6,0000.0,0010.77,0004.62,0003.04
2022-04-10 12:56:00,,0815.2,5.00,0.00,23.1,22.6,00.0,31.9,25.0,20.6,0000.0,0010.70,0004.60,0003.03
2022-04-10 12:57:00,,0815.3,5.01,0.00,23.1,22.6,00.0,32.0,25.0,20.3,0000.0,0010.65,0004.58,0003.02
2022-04-10 12:58:00,,0815.2,5.00,0.00,23.1,22.6,00.0,32.0,25.0,20.0,0000.0,0010.58,0004.55,0003.02
2022-04-10 12:59:00,,0815.2,5.00,0.00,23.1,22.6,00.0,32.0,25.0,19.7,0000.0,0011.56,0004.60,0003.01
